Regional Weather Roundup
Issued by NWS

Home | Current Version | Previous Version | Graphics & Text | Print | Product List | Glossary On
Versions: 1 2 3 4 5 6 7 8 9 10 11 12 13 14 15 16 17 18 19 20 21 22 23 24 25 26 27 28 29 30 31 32 33 34 35 36 37 38 39 40 41 42 43 44 45 46 47 48 49 50
000
ASUS45 KBOU 200307
RWRCO

WEATHER ROUNDUP FOR COLORADO
NATIONAL WEATHER SERVICE DENVER/BOULDER CO
800 PM MST FRI DEC 19 2014

NOTE: "FAIR" INDICATES FEW OR NO CLOUDS BELOW 12000 FEET WITH NO
SIGNIFICANT WEATHER AND/OR OBSTRUCTIONS TO VISIBILITY.

COZ001>005-013-030-031-200400-
...NORTHWEST COLORADO...

CITY           SKY/WX    TMP DP  RH WIND       PRES   REMARKS
CRAIG          PTCLDY    13  11  92 SE3       30.18S
HAYDEN         CLEAR     18  12  79 E10       30.17S WCI   6
MEEKER         PTCLDY    12   8  84 CALM      30.18S
MOUNT WERNER   NOT AVBL
STEAMBOAT SPGS MOCLDY    18  16  92 CALM      30.18R
WALDEN         PTCLDY    21  14  73 S12       30.11F WCI   9
$$

COZ006>008-011-200400-
...WEST CENTRAL VALLEYS...

CITY           SKY/WX    TMP DP  RH WIND       PRES   REMARKS
GRAND JUNCTION PTCLDY    29  27  92 N3        30.21S
MONTROSE       MOCLDY    31  25  78 S6        30.22S WCI  25
EAGLE          CLEAR     21  18  86 E8        30.22S WCI  12
RIFLE          PTCLDY    29  23  78 SE8       30.21F WCI  21
DELTA          MOCLDY    32  27  81 CALM      30.22S
NUCLA          MOCLDY    30  27  86 E7        30.25R WCI  23
$$

COZ017>023-064>068-200400-
...SOUTHWEST COLORADO...

CITY           SKY/WX    TMP DP  RH WIND       PRES   REMARKS
DURANGO        CLOUDY    30  24  78 CALM      30.18S
CORTEZ         CLEAR     28  26  92 N3        30.21R
PAGOSA SPRINGS CLOUDY    23  21  90 CALM      30.18R
TELLURIDE      MOCLDY    19  14  82 CALM      30.20S
WOLF CREEK PAS MOCLDY    19   1  45 MISG      30.15S
$$

COZ009-010-012-014-032>034-037-058>063-200400-
...CENTRAL COLORADO...

CITY           SKY/WX    TMP DP  RH WIND       PRES   REMARKS
ASPEN          MOCLDY    15  11  83 SW3       30.18S
BUENA VISTA    PTCLDY    23   9  55 SW3       30.13R
COPPER MTN     PTCLDY    14   9  79 W16       30.14R WCI  -2
BERTHOUD PASS  CLOUDY     5   0  78 MISG      30.08R
COTTONWOOD PAS PTCLDY    27   9  46 S3        30.11S
GUNNISON       PTCLDY    18   9  68 NE3       30.22R
KREMMLING      PTCLDY    14  10  85 CALM      30.19S
LEADVILLE      PTCLDY    11   5  77 NE9       30.13S WCI  -2
MONARCH PASS   CLOUDY    10   9  92 MISG      30.21R
SALIDA         PTCLDY    30  14  51 W9        30.20R WCI  22
SUNLIGHT       MOCLDY   N/A N/A N/A S3        30.17S
WILKERSON PASS MOCLDY    21   9  58 NW15G28   30.09S WCI   8
$$

COZ069>075-200400-
...SAN LUIS VALLEY/SANGRE DE CRISTO MOUNTAINS...

CITY           SKY/WX    TMP DP  RH WIND       PRES   REMARKS
ALAMOSA        PTCLDY    16  11  80 CALM      30.16R
LA VETA PASS   CLEAR     18  10  73 MISG      30.08S
SAGUACHE       PTCLDY    25  12  58 NW9       30.17R WCI  15
$$

COZ035-036-038>040-200400-
...NORTHERN COLORADO FRONT RANGE...

CITY           SKY/WX    TMP DP  RH WIND       PRES   REMARKS
DENVER INTL AP MOCLDY    31  15  52 SW5       30.01S WCI  26
DMNS CITY PARK   N/A     36  15  43 S6        30.01S
AURORA         MOCLDY    31  15  50 SW9       30.02S WCI  23
FRONT RANGE AP NOT AVBL
ERIE MUNI ARPT   N/A     31  14  50 CALM      30.01S
BOULDER MUN AP MOCLDY    37  14  38 CALM      30.01S
CENTENNIAL     CLOUDY    31  16  54 CALM      30.02R
BROOMFIELD     PTCLDY    37  12  35 SW3       30.02S
FORT COLLINS   PTCLDY    32  16  51 N5        30.03S WCI  27
LONGMONT       PTCLDY    32  17  54 W6        30.03S WCI  26
$$

COZ041-046-047-076>085-087-088-200400-
...PIKES PEAK/PALMER DIVIDE AND SOUTHERN FOOTHILLS...

CITY           SKY/WX    TMP DP  RH WIND       PRES   REMARKS
COLO. SPRINGS  MOCLDY    25  13  60 E5        30.06R WCI  19
A. F. ACADEMY  PTCLDY    22  13  66 N5        30.05R WCI  16
ELLICOTT       NOT AVBL
FALCON         PTCLDY    26  18  69 SW6       30.06S WCI  20
FORT CARSON    PTCLDY    33  17  51 S5        30.05R WCI  28
LIMON          CLEAR     21  17  84 CALM      30.05R
MONUMENT HILL  MOCLDY    28  16  59 S8        30.03R WCI  20
TRINIDAD       CLEAR     25  18  74 W10       30.07R WCI  15
$$

COZ042>045-048>051-090-091-200400-
...NORTHEAST COLORADO...

CITY           SKY/WX    TMP DP  RH WIND       PRES   REMARKS
GREELEY ARPT   PTCLDY    21  12  68 N6        30.00S WCI  14
AKRON          PTCLDY    30  20  66 S9        30.02S WCI  22
BURLINGTON     CLEAR     29  25  85 SW8       30.06R WCI  21
WRAY           CLEAR     30  25  81 W8        30.04S WCI  22
STERLING       PTCLDY    21  19  93 CALM      30.02S FOG
HOLYOKE        CLEAR     28  21  74 W8        30.03S WCI  20
FORT MORGAN    PTCLDY    32  22  68 CALM      30.02S
$$

COZ086-089-092>099-200400-
...SOUTHEAST COLORADO...

CITY           SKY/WX    TMP DP  RH WIND       PRES   REMARKS
PUEBLO         CLEAR     28  21  75 NE5       30.05S WCI  23
LA JUNTA       CLEAR     33  23  66 CALM      30.06R
LAMAR          CLEAR     25  23  92 CALM      30.05F
SPRINGFIELD      N/A     27  23  85 SW5       30.07R WCI  22
$$


USA.gov is the U.S. government's official web portal to all federal, state and local government web resources and services.